Time,TemperatureF,DewpointF,PressureIn,WindDirection,WindDirectionDegrees,WindSpeedMPH,WindSpeedGustMPH,Humidity,HourlyPrecipIn,Conditions,Clouds,dailyrainin,SoftwareType,DateUTC
2013-08-21 00:01:00,62.4,53.3,30.25,NNW,338,0.0,0.0,72,0.00,,---,0.00,VWS V14.01,2013-08-21 04:01:00,
2013-08-21 00:06:00,62.2,52.7,30.25,NNW,338,0.0,0.0,71,0.00,,---,0.00,VWS V14.01,2013-08-21 04:06:00,
2013-08-21 00:11:00,61.8,52.7,30.25,NNW,338,0.0,0.0,72,0.00,,---,0.00,VWS V14.01,2013-08-21 04:11:00,
2013-08-21 00:16:00,61.8,52.7,30.25,NNW,338,0.0,0.0,72,0.00,,---,0.00,VWS V14.01,2013-08-21 04:16:00,
2013-08-21 00:21:00,61.5,52.4,30.25,NNW,338,0.0,0.0,72,0.00,,---,0.00,VWS V14.01,2013-08-21 04:21:00,
2013-08-21 00:26:00,61.5,52.4,30.25,NNW,338,0.0,0.0,72,0.00,,---,0.00,VWS V14.01,2013-08-21 04:26:00,
2013-08-21 00:31:00,61.3,52.2,30.25,NNW,338,0.0,0.0,72,0.00,,---,0.00,VWS V14.01,2013-08-21 04:31:00,
2013-08-21 00:36:00,61.3,52.6,30.25,NNW,338,0.0,0.0,73,0.00,,---,0.00,VWS V14.01,2013-08-21 04:36:00,
2013-08-21 00:41:00,61.1,52.4,30.25,NNW,338,0.0,0.0,73,0.00,,---,0.00,VWS V14.01,2013-08-21 04:41:00,
2013-08-21 00:46:00,60.9,52.2,30.25,NNW,338,0.0,0.0,73,0.00,,---,0.00,VWS V14.01,2013-08-21 04:46:00,
2013-08-21 00:51:00,60.6,51.9,30.25,NNW,338,0.0,0.0,73,0.00,,---,0.00,VWS V14.01,2013-08-21 04:51:00,
2013-08-21 00:56:00,60.6,51.9,30.25,NNW,338,0.0,0.0,73,0.00,,---,0.00,VWS V14.01,2013-08-21 04:56:00,
2013-08-21 01:01:00,60.6,51.9,30.25,NNW,338,0.0,0.0,73,0.00,,---,0.00,VWS V14.01,2013-08-21 05:01:00,
2013-08-21 01:06:00,60.4,51.7,30.25,NNW,338,0.0,0.0,73,0.00,,---,0.00,VWS V14.01,2013-08-21 05:06:00,
2013-08-21 01:11:00,60.2,51.5,30.25,NNW,338,0.0,0.0,73,0.00,,---,0.00,VWS V14.01,2013-08-21 05:11:00,
2013-08-21 01:16:00,60.0,51.3,30.25,NNW,338,0.0,0.0,73,0.00,,---,0.00,VWS V14.01,2013-08-21 05:16:00,
2013-08-21 01:21:00,59.9,51.6,30.26,NNW,338,0.0,0.0,74,0.00,,---,0.00,VWS V14.01,2013-08-21 05:21:00,
2013-08-21 01:26:00,59.9,51.6,30.26,NNW,338,0.0,0.0,74,0.00,,---,0.00,VWS V14.01,2013-08-21 05:26:00,
2013-08-21 01:31:00,59.7,51.4,30.26,NNW,338,0.0,0.0,74,0.00,,---,0.00,VWS V14.01,2013-08-21 05:31:00,
2013-08-21 01:36:00,59.5,51.2,30.26,NNW,338,0.0,0.0,74,0.00,,---,0.00,VWS V14.01,2013-08-21 05:36:00,
2013-08-21 01:41:00,59.5,51.2,30.26,NNW,338,0.0,0.0,74,0.00,,---,0.00,VWS V14.01,2013-08-21 05:41:00,
2013-08-21 01:46:00,59.3,51.0,30.26,NNW,338,0.0,0.0,74,0.00,,---,0.00,VWS V14.01,2013-08-21 05:46:00,
2013-08-21 01:51:00,59.1,51.2,30.26,NNW,338,0.0,0.0,75,0.00,,---,0.00,VWS V14.01,2013-08-21 05:51:00,
2013-08-21 01:56:00,58.8,50.9,30.26,NNW,338,0.0,0.0,75,0.00,,---,0.00,VWS V14.01,2013-08-21 05:56:00,
2013-08-21 03:24:00,57.2,49.7,30.25,NNW,338,0.0,0.0,76,0.00,,---,0.00,VWS V14.01,2013-08-21 07:24:00,
2013-08-21 03:29:00,57.0,49.5,30.25,NNW,338,0.0,0.0,76,0.00,,---,0.00,VWS V14.01,2013-08-21 07:29:00,
2013-08-21 03:34:00,57.0,49.5,30.26,NNW,338,0.0,0.0,76,0.00,,---,0.00,VWS V14.01,2013-08-21 07:34:00,
2013-08-21 03:39:00,56.8,49.3,30.25,NNW,338,0.0,0.0,76,0.00,,---,0.00,VWS V14.01,2013-08-21 07:39:00,
2013-08-21 03:44:00,56.8,49.3,30.25,NNW,338,0.0,0.0,76,0.00,,---,0.00,VWS V14.01,2013-08-21 07:44:00,
2013-08-21 03:49:00,56.8,49.3,30.26,NNW,338,0.0,0.0,76,0.00,,---,0.00,VWS V14.01,2013-08-21 07:49:00,
2013-08-21 03:54:00,56.4,48.9,30.25,NNW,338,0.0,0.0,76,0.00,,---,0.00,VWS V14.01,2013-08-21 07:54:00,
2013-08-21 03:59:00,56.4,49.3,30.25,NNW,338,0.0,0.0,77,0.00,,---,0.00,VWS V14.01,2013-08-21 07:59:00,
2013-08-21 04:04:00,56.4,49.3,30.26,NNW,338,0.0,0.0,77,0.00,,---,0.19,VWS V14.01,2013-08-21 08:04:00,
2013-08-21 04:09:00,56.3,49.2,30.26,NNW,338,0.0,0.0,77,0.00,,---,0.00,VWS V14.01,2013-08-21 08:09:00,
2013-08-21 04:14:00,56.1,49.0,30.26,NNW,338,0.0,0.0,77,0.00,,---,0.00,VWS V14.01,2013-08-21 08:14:00,
2013-08-21 04:19:00,56.1,49.0,30.26,NNW,338,0.0,0.0,77,0.00,,---,0.00,VWS V14.01,2013-08-21 08:19:00,
2013-08-21 04:24:00,55.9,48.8,30.26,NNW,338,0.0,0.0,77,0.00,,---,0.00,VWS V14.01,2013-08-21 08:24:00,
2013-08-21 04:29:00,55.9,48.8,30.26,NNW,338,0.0,0.0,77,0.00,,---,0.00,VWS V14.01,2013-08-21 08:29:00,
2013-08-21 04:34:00,55.9,48.8,30.26,NNW,338,0.0,0.0,77,0.00,,---,0.00,VWS V14.01,2013-08-21 08:34:00,
2013-08-21 04:39:00,55.7,48.6,30.26,NNW,338,0.0,0.0,77,0.00,,---,0.00,VWS V14.01,2013-08-21 08:39:00,
2013-08-21 04:44:00,55.7,48.6,30.26,NNW,338,0.0,0.0,77,0.00,,---,0.00,VWS V14.01,2013-08-21 08:44:00,
2013-08-21 04:49:00,55.5,48.4,30.26,NNW,338,0.0,0.0,77,0.00,,---,0.00,VWS V14.01,2013-08-21 08:49:00,
2013-08-21 04:54:00,55.5,48.4,30.26,NNW,338,0.0,0.0,77,0.00,,---,0.00,VWS V14.01,2013-08-21 08:54:00,
2013-08-21 04:59:00,55.4,48.3,30.25,NNW,338,0.0,0.0,77,0.00,,---,0.00,VWS V14.01,2013-08-21 08:59:00,
2013-08-21 05:04:00,55.4,48.3,30.26,NNW,338,0.0,0.0,77,0.00,,---,0.19,VWS V14.01,2013-08-21 09:04:00,
2013-08-21 05:09:00,55.2,48.1,30.26,NNW,338,0.0,0.0,77,0.00,,---,0.00,VWS V14.01,2013-08-21 09:09:00,
2013-08-21 05:14:00,55.2,48.1,30.26,NNW,338,0.0,0.0,77,0.00,,---,0.00,VWS V14.01,2013-08-21 09:14:00,
2013-08-21 05:19:00,55.2,48.5,30.26,NNW,338,0.0,0.0,78,0.00,,---,0.00,VWS V14.01,2013-08-21 09:19:00,
2013-08-21 05:24:00,55.0,48.3,30.26,NNW,338,0.0,0.0,78,0.00,,---,0.00,VWS V14.01,2013-08-21 09:24:00,
2013-08-21 05:29:00,55.0,48.3,30.26,NNW,338,0.0,0.0,78,0.00,,---,0.00,VWS V14.01,2013-08-21 09:29:00,
2013-08-21 05:34:00,55.0,48.3,30.26,NNW,338,0.0,0.0,78,0.00,,---,0.00,VWS V14.01,2013-08-21 09:34:00,
2013-08-21 05:39:00,54.8,48.1,30.26,NNW,338,0.0,0.0,78,0.00,,---,0.00,VWS V14.01,2013-08-21 09:39:00,
2013-08-21 05:44:00,54.6,47.9,30.26,NNW,338,0.0,0.0,78,0.00,,---,0.00,VWS V14.01,2013-08-21 09:44:00,
2013-08-21 05:48:00,54.6,47.9,30.26,NNW,338,0.0,0.0,78,0.00,,---,0.00,VWS V14.01,2013-08-21 09:48:00,
2013-08-21 05:54:00,54.6,47.9,30.26,NNW,338,0.0,0.0,78,0.00,,---,0.00,VWS V14.01,2013-08-21 09:54:00,
2013-08-21 05:59:00,54.5,47.8,30.27,NNW,338,0.0,0.0,78,0.00,,---,0.00,VWS V14.01,2013-08-21 09:59:00,
2013-08-21 06:04:00,54.5,47.8,30.26,NNW,338,0.0,0.0,78,0.00,,---,0.19,VWS V14.01,2013-08-21 10:04:00,
2013-08-21 06:09:00,54.5,47.8,30.26,NNW,338,0.0,0.0,78,0.00,,---,0.00,VWS V14.01,2013-08-21 10:09:00,
2013-08-21 06:14:00,54.3,47.6,30.27,NNW,338,0.0,0.0,78,0.00,,---,0.00,VWS V14.01,2013-08-21 10:14:00,
2013-08-21 07:51:00,54.3,48.3,30.27,NNW,338,0.0,0.0,80,0.00,,---,0.00,VWS V14.01,2013-08-21 11:51:00,
2013-08-21 07:56:00,54.6,48.6,30.28,NNW,338,0.0,0.0,80,0.00,,---,0.00,VWS V14.01,2013-08-21 11:56:00,
2013-08-21 08:01:00,54.6,48.9,30.28,NNW,338,0.0,0.0,81,0.00,,---,0.19,VWS V14.01,2013-08-21 12:01:00,
2013-08-21 08:06:00,54.6,48.9,30.28,NNW,338,0.0,0.0,81,0.00,,---,0.00,VWS V14.01,2013-08-21 12:06:00,
2013-08-21 08:11:00,55.0,49.3,30.28,NNW,338,0.0,0.0,81,0.00,,---,0.00,VWS V14.01,2013-08-21 12:11:00,
2013-08-21 08:16:00,55.2,49.5,30.28,NNW,338,0.0,0.0,81,0.00,,---,0.00,VWS V14.01,2013-08-21 12:16:00,
2013-08-21 08:21:00,55.5,50.1,30.28,NNW,338,0.0,0.0,82,0.00,,---,0.00,VWS V14.01,2013-08-21 12:21:00,
2013-08-21 08:26:00,55.9,50.5,30.28,NNW,338,0.0,0.0,82,0.00,,---,0.00,VWS V14.01,2013-08-21 12:26:00,
2013-08-21 08:31:00,56.4,51.3,30.28,NNW,338,0.0,0.0,83,0.00,,---,0.00,VWS V14.01,2013-08-21 12:31:00,
2013-08-21 08:36:00,57.0,52.2,30.27,NNW,338,0.0,0.0,84,0.00,,---,0.19,VWS V14.01,2013-08-21 12:36:00,
2013-08-21 08:41:00,57.3,52.5,30.27,NNW,338,0.0,0.0,84,0.00,,---,0.00,VWS V14.01,2013-08-21 12:41:00,
2013-08-21 08:46:00,57.7,53.2,30.27,NNW,338,0.0,0.0,85,0.00,,---,0.19,VWS V14.01,2013-08-21 12:46:00,
2013-08-21 08:51:00,58.6,54.1,30.28,NNW,338,0.0,0.0,85,0.00,,---,0.19,VWS V14.01,2013-08-21 12:51:00,
2013-08-21 08:56:00,58.8,54.3,30.28,NNW,338,0.0,0.0,85,0.00,,---,0.00,VWS V14.01,2013-08-21 12:56:00,
2013-08-21 09:01:00,59.5,55.0,30.28,NNW,338,0.0,0.0,85,0.00,,---,0.19,VWS V14.01,2013-08-21 13:01:00,
2013-08-21 09:06:00,60.0,55.8,30.27,NW,315,0.0,0.0,86,0.00,,---,0.19,VWS V14.01,2013-08-21 13:06:00,
2013-08-21 09:11:00,60.6,56.4,30.28,NW,315,0.0,0.0,86,0.00,,---,0.00,VWS V14.01,2013-08-21 13:11:00,
2013-08-21 09:16:00,61.1,56.6,30.27,WSW,248,0.0,0.0,85,0.00,,---,0.19,VWS V14.01,2013-08-21 13:16:00,
2013-08-21 09:21:00,61.5,57.0,30.27,WSW,248,0.0,0.0,85,0.00,,---,0.19,VWS V14.01,2013-08-21 13:21:00,
2013-08-21 09:26:00,61.8,57.2,30.27,NE,45,0.0,0.0,85,0.00,,---,0.00,VWS V14.01,2013-08-21 13:26:00,
2013-08-21 09:31:00,62.6,58.0,30.28,NNW,338,0.0,0.0,85,0.00,,---,0.19,VWS V14.01,2013-08-21 13:31:00,
2013-08-21 09:36:00,62.9,58.3,30.27,NNW,338,0.0,0.0,85,0.00,,---,0.19,VWS V14.01,2013-08-21 13:36:00,
2013-08-21 09:41:00,63.3,58.4,30.28,NNW,338,0.0,0.0,84,0.00,,---,0.00,VWS V14.01,2013-08-21 13:41:00,
2013-08-21 12:18:00,77.1,63.1,30.25,WNW,292,0.0,0.0,62,0.00,,---,0.00,VWS V14.01,2013-08-21 16:18:00,
2013-08-21 12:23:00,77.1,62.6,30.25,NNW,338,0.0,0.0,61,0.00,,---,0.00,VWS V14.01,2013-08-21 16:23:00,
2013-08-21 16:46:00,81.8,62.5,30.20,West,270,0.0,0.0,52,0.00,,---,0.00,VWS V14.01,2013-08-21 20:46:00,
2013-08-21 16:51:00,82.0,62.7,30.20,NW,315,0.0,0.0,52,0.00,,---,0.00,VWS V14.01,2013-08-21 20:51:00,
2013-08-21 16:56:00,82.0,62.1,30.19,NNW,338,0.0,0.0,51,0.00,,---,0.00,VWS V14.01,2013-08-21 20:56:00,
2013-08-21 17:01:00,82.0,62.1,30.19,NE,45,0.0,0.0,51,0.00,,---,0.00,VWS V14.01,2013-08-21 21:01:00,
2013-08-21 17:06:00,82.0,62.1,30.19,WNW,292,0.0,0.0,51,0.00,,---,0.00,VWS V14.01,2013-08-21 21:06:00,
2013-08-21 17:11:00,82.0,61.5,30.19,NW,315,0.0,0.0,50,0.00,,---,0.00,VWS V14.01,2013-08-21 21:11:00,
2013-08-21 17:16:00,82.0,61.5,30.19,NW,315,0.0,0.0,50,0.00,,---,0.00,VWS V14.01,2013-08-21 21:16:00,
2013-08-21 17:21:00,81.6,61.2,30.19,NW,315,0.0,0.0,50,0.00,,---,0.00,VWS V14.01,2013-08-21 21:21:00,
2013-08-21 17:26:00,81.6,61.2,30.19,NW,315,0.0,0.0,50,0.00,,---,0.00,VWS V14.01,2013-08-21 21:26:00,
2013-08-21 21:05:00,70.5,57.3,30.16,NW,315,0.0,0.0,63,0.00,,---,0.00,VWS V14.01,2013-08-22 01:05:00,
2013-08-21 21:10:00,70.3,57.1,30.16,NW,315,0.0,0.0,63,0.00,,---,0.00,VWS V14.01,2013-08-22 01:10:00,
2013-08-21 21:15:00,69.9,57.2,30.16,NW,315,0.0,0.0,64,0.00,,---,0.00,VWS V14.01,2013-08-22 01:15:00,
2013-08-21 21:20:00,69.8,57.1,30.16,NW,315,0.0,0.0,64,0.00,,---,0.00,VWS V14.01,2013-08-22 01:20:00,
2013-08-21 21:25:00,69.6,57.3,30.16,NW,315,0.0,0.0,65,0.00,,---,0.00,VWS V14.01,2013-08-22 01:25:00,